Flag for U.S.A. Weather past 2 weeks in Post Falls, Idaho, U.S.A.

28 °F


Feels Like: 17 °F
Forecast: 16 / 35 °F
Wind: 15 mph from Northeast

Location: Coeur d'Alene Weather Reporting System

Current Time: Nov 25, 2015 at 5:24:49 PM

Latest Report: Nov 25, 2015 at 4:35 PM

Visibility: 10 mi

Pressure: 30.22 "Hg (27.79 "Hg at 664m altitude)

Humidity: 47%

Dew point: 10 °F

Location of Post FallsLocation

Historic Weather in Post Falls — Graph


Post Falls temperature yesterday

Maximum temperature yesterday: 36 °F (at 12:15 PM)
Minimum temperature yesterday: 27 °F (at 11:55 PM)
Average temperature yesterday: 32 °F

Past Weeks' High & Low Weather Summary

High55 °F (Nov 13, 2:55 PM)93% (Nov 12, 5:15 AM)30.53 "Hg (Nov 12, 5:15 AM)
Low19 °F (Nov 21, 2:15 AM)11% (Nov 23, 1:35 PM)29.36 "Hg (Nov 17, 4:55 PM)
Average36 °F73%30.00 "Hg
* Reported Nov 10 3:15 PM — Nov 25 3:55 PM, Post Falls, Weather by CustomWeather, © 2015

Note: Actual official high and low records may vary slightly from our data, if they occured in-between our weather recording intervals... More about our weather records


Post Falls weather history for previous 24 hours

Time TempWeatherWind HumidityBarometerVisibility
3:55 PM
Wed, Nov 25
30 °FSunny.16 mph43%30.21 "Hg10 mi
3:35 PM32 °FSunny.22 mph40%30.20 "Hg10 mi
2:55 PM34 °FSunny.18 mph41%30.20 "Hg10 mi
2:35 PM34 °FSunny.20 mph44%30.19 "Hg10 mi
2:15 PM34 °FSunny.18 mph48%30.18 "Hg10 mi
1:55 PM34 °FSunny.22 mph48%30.18 "Hg10 mi
1:35 PM34 °FSunny.18 mph48%30.18 "Hg10 mi
12:55 PM34 °FSunny.23 mph44%30.18 "Hg10 mi
12:35 PMN/ASunny.20 mphN/A30.18 "Hg10 mi
12:15 PM32 °FSunny.22 mph51%30.19 "Hg10 mi
11:55 AMN/ASunny.21 mphN/A30.18 "Hg10 mi
11:35 AM32 °FSunny.22 mph47%30.18 "Hg10 mi
11:15 AM30 °FSunny.21 mph51%30.19 "Hg10 mi
10:55 AM30 °FSunny.23 mph51%30.19 "Hg10 mi
10:35 AM30 °FSunny.18 mph51%30.19 "Hg10 mi
10:15 AM30 °FSunny.17 mph51%30.19 "Hg10 mi
9:55 AM28 °FSunny.18 mph51%30.19 "Hg10 mi
9:35 AM28 °FSunny.20 mph55%30.18 "Hg10 mi
9:15 AM28 °FSunny.15 mph51%30.18 "Hg10 mi
8:55 AM27 °FSunny.15 mph54%30.18 "Hg10 mi
8:35 AM27 °FSunny.16 mph54%30.18 "Hg10 mi
8:15 AM25 °FSunny.14 mph54%30.17 "Hg10 mi
7:55 AM25 °FSunny.14 mph59%30.16 "Hg10 mi
7:35 AM25 °FSunny.16 mph54%30.16 "Hg10 mi
7:15 AM23 °FSunny.12 mph58%30.15 "Hg10 mi
6:55 AM25 °FClear.13 mph54%30.14 "Hg10 mi
6:35 AM25 °FClear.14 mph54%30.14 "Hg10 mi
6:15 AM25 °FClear.17 mph54%30.13 "Hg10 mi
5:55 AM25 °FClear.17 mph54%30.12 "Hg10 mi
5:35 AMN/AClear.23 mphN/A30.11 "Hg10 mi
5:15 AM25 °FClear.21 mph59%30.10 "Hg10 mi
4:55 AM25 °FClear.20 mph59%30.09 "Hg10 mi
4:35 AM25 °FClear.20 mph59%30.08 "Hg10 mi
4:15 AM25 °FClear.16 mph59%30.07 "Hg10 mi
3:55 AM25 °FClear.13 mph59%30.07 "Hg10 mi
3:35 AM25 °FClear.16 mph59%30.06 "Hg10 mi
3:15 AM25 °FClear.18 mph59%30.06 "Hg10 mi
2:55 AM25 °FClear.17 mph59%30.06 "Hg10 mi
2:35 AM25 °FClear.15 mph59%30.05 "Hg10 mi
2:15 AM27 °FClear.20 mph59%30.04 "Hg10 mi
1:55 AM27 °FClear.20 mph59%30.04 "Hg10 mi
1:35 AM27 °FClear.21 mph59%30.03 "Hg10 mi
1:15 AM27 °FClear.21 mph64%30.02 "Hg10 mi
12:55 AM27 °FClear.20 mph64%30.01 "Hg10 mi
12:35 AMN/AClear.20 mphN/A29.99 "Hg10 mi
12:15 AM27 °FClear.22 mph64%29.99 "Hg10 mi
11:55 PM
Tue, Nov 24
27 °FClear.21 mph64%29.99 "Hg10 mi
11:15 PMN/AClear.23 mphN/A29.97 "Hg10 mi
10:55 PM28 °FClear.23 mph64%29.97 "Hg10 mi
10:15 PM28 °FPassing clouds.23 mph64%29.96 "Hg10 mi
9:55 PM28 °FPassing clouds.23 mph69%29.95 "Hg10 mi
9:15 PM30 °FOvercast.21 mph64%29.93 "Hg10 mi
8:55 PM30 °FOvercast.21 mph64%29.93 "Hg10 mi
8:35 PM30 °FOvercast.22 mph69%29.91 "Hg10 mi
7:55 PM30 °FOvercast.22 mph69%29.90 "Hg10 mi
7:35 PM30 °FOvercast.21 mph69%29.89 "Hg10 mi
7:15 PM30 °FMostly cloudy.23 mph75%29.89 "Hg10 mi
6:55 PMN/APassing clouds.22 mphN/A29.87 "Hg10 mi
6:35 PMN/APartly cloudy.23 mphN/A29.87 "Hg10 mi
6:15 PMN/APassing clouds.21 mphN/A29.86 "Hg10 mi
5:55 PMN/APassing clouds.20 mphN/A29.85 "Hg10 mi
5:35 PMN/APassing clouds.22 mphN/A29.84 "Hg10 mi
5:15 PMN/AMostly cloudy.22 mphN/A29.83 "Hg10 mi
Weather by CustomWeather, © 2015

See weather overviewHow to use our weather pages